STARLINK-34887, 65103

Orbit data source: Space-Track

STARLINK-34887, 65103 is a payload satellite owned by SpaceX/Seattle (US) in LEO that was launched on Mon, 04 Aug 2025 UTC via an FALCON 9 launch vehicle from the Air Force Eastern Test Range (AFETR). Payload-class satellites include a variety of spacecraft equipped with specific instruments for various scientific and technological missions. These include communications satellites like Starlink; space stations such as the ISS; scientific satellites like the Hubble; Earth observation satellites from companies like Planet Labs, Umbra, and HawkEye 360; GPS; miniature CubeSats for education and research; and military/defense satellites.

Not visible in the next 10 days
Identifier
65103, 2025-167AB
Orbit
LEO
Country
Flag of USUS
Related business
Manufacturer
SpaceX/Seattle
Mission
Operational spacecraft
Bus & Motor
STARLINK V2MO, Unknown motor
Mass
575 kg wet, ~530 kg dry
Launch date (UTC)
2025-08-04 (1 month ago)
Launch vehicle
FALCON 9
Launch site
Air Force Eastern Test Range (AFETR)
Object type
Payload
Rocket body
Debris
Shape & HBR
Unknown
Radar Cross Section
Large (>1 m²)

Expand to show TLE details & history
Last TLE update: 14 hours ago

TLE from 14 hours ago
0 STARLINK-34887
1 65103U 25167AB  25243.17479534  .00132489  00000-0  89391-3 0  9992
2 65103  53.1580 194.9843 0002423  33.9856 326.1319 15.74209434  4268
Epoch: 2025-08-31T04:11Z
TLE epoch observation values (Epoch: 2025-08-31T04:11:42.317Z)
Latitude
0.00001°
Longitude
152.45947°
Altitude
346.446 km
Speed
7.703 km/s
True Right ascension
12h 59m 56s
True Declination
0° 00' 00"
Sunlit
Object was in daylight at epoch
Visualization orbit readout
Latitude
Unknown
Longitude
Unknown
Altitude
Unknown
Speed
Unknown
Apparent Right ascension
Unknown
Apparent Declination
Unknown
Sunlit
N/A
Visualization observer readout
Local Sidereal Time
10:03:35
Azimuth
Unknown
Elevation
Unknown
Doppler factor
Unknown
Orbital elements
Apogee altitude
348.773 km
Perigee altitude
345.514 km
Semi-major axis
6,725.28 km
Eccentricity
0.00024
Inclination
53.158°
RAAN
194.9843°
Arg. of periapsis
33.9856°
True anomaly
326.11642°
Mean anomaly
326.1319°
Eccentric anomaly
326.12416°
Mean motion
3.9353 °/min
Orbital period
91.48 mins
BSTAR
0.00089391
Loading maneuver chart data...
Computing Atmospheric mass density...
Loading historical data...
Loading historical data...
Loading historical data...
Loading historical data...
Loading historical data...
Loading historical data...
Loading historical data...

Documentation

Showing up to 5 results
|